Location: Chippewa Lake
(41.0698°N, 81.9010°W)
Time: 21:31:48
(UTC+00:00)

ERS-1 Rocket - Pass Details

Date: 09 May 2021
Orbit: 754 x 757 km, 98.4° (Epoch: 16 June)

Event Time Altitude Azimuth Distance (km) Brightness Sun altitude
Exits shadow 03:30:49 55° 232° (SW) 906 3.2 -25.9°
Maximum altitude 03:31:21 58° 259° (W) 878 3.3 -26.0°
Drops below altitude 10° 03:36:19 10° 339° (NNW) 2,289 6.5 -26.4°
Sets 03:38:40 0° 343° (NNW) 3,219 7.5 -26.6°
